{"data":{"norad_id":52266,"epoch":"2026-05-25T04:59:45.068064Z","epoch_age_seconds":53494,"freshness":"FRESH","line1":"1 52266U 22041F   26145.20816051  .00001112  00000+0  87909-4 0  9992","line2":"2 52266  53.2145 125.6146 0001169  75.4498 284.6623 15.08845189225911","mean_motion":15.08845189,"eccentricity":0.0001169,"inclination_deg":53.2145,"raan_deg":125.6146,"arg_perigee_deg":75.4498,"mean_anomaly_deg":284.6623,"bstar":8.7909e-5,"rev_number":22591,"period_min":95.437226462867,"perigee_km":538.91882994909,"apogee_km":540.53622667581,"semimajor_km":6917.8645283124,"source":"CELESTRAK","updated_at":"2026-05-25T13:38:17.080806Z"}}